Chesapeake, VA

5:57 PM EST on February 13, 2016 (GMT -0500)
Chesapeake Regional

Weather History for KCPK - March, 2012

Change the Weather History Date:

Wednesday, March 28, 2012

  Actual Average (KORF) Record (KORF)
Temperature  
Mean Temperature 56 °F 53 °F  
Max Temperature 73 °F 62 °F 89 °F (1907)
Min Temperature 41 °F 44 °F 28 °F (1982)
Degree Days  
Heating Degree Days 9 12  
Month to date heating degree days 457  
Since 1 July heating degree days 3026  
Cooling Degree Days 0 0  
Month to date cooling degree days 0  
Year to date cooling degree days 1  
Growing Degree Days 6 (Base 50)    
Moisture  
Dew Point 43 °F    
Average Humidity 64    
Maximum Humidity 87    
Minimum Humidity 46    
Precipitation  
Precipitation 0.00 in 0.12 in 2.00 in (1984)
Month to date precipitation 3.33  
Year to date precipitation 9.85  
Snow  
Snow 0.00 in 0.00 in 0.80 in (1947)
Month to date snowfall 0.2  
Since 1 July snowfall 5.8  
Snow Depth -    
Sea Level Pressure  
Sea Level Pressure 30.12 in    
Wind  
Wind Speed 6 mph (SSW)    
Max Wind Speed 21 mph    
Max Gust Speed 29 mph    
Visibility 10 miles    
Events      
T = Trace of Precipitation, MM = Missing Value Source: NWS Daily Summary

Daily Weather History Graph

Daily Weather History Graph

Search for Another Location

Airport or City:

Trip Planner

Search our weather history database for the weather conditions in past years. The results will help you decide how hot, cold, wet, or windy it might be!

Date:

Astronomy

Mar. 28, 2012 Rise Set
Actual Time 6:56 AM EDT 7:24 PM EDT
Civil Twilight 6:30 AM EDT 7:50 PM EDT
Nautical Twilight 6:00 AM EDT 8:20 PM EDT
Astronomical Twilight 5:28 AM EDT 8:52 PM EDT
Moon 10:19 AM EDT (3/28) 12:16 AM EDT (3/28)
Length of Visible Light 13h 20m
Length of Day
12h 28m
Waxing Crescent, 30% of the Moon is Illuminated
Mar 28
Waxing Crescent
Mar 30
First Quarter
Apr 6
Full
Apr 13
Last Quarter
Apr 21
New

Hourly Weather History & Observations

Time (EDT) Temp. Dew Point Humidity Pressure Visibility Wind Dir Wind Speed Gust Speed Precip Events Conditions
12:15 AM 44.6 °F 33.8 °F 66% 30.30 in 10.0 mi Calm Calm - N/A   Clear
12:35 AM 42.8 °F 35.6 °F 76% 30.29 in 10.0 mi Calm Calm - N/A   Clear
12:55 AM 41.0 °F 35.6 °F 81% 30.28 in 10.0 mi Calm Calm - N/A   Clear
1:15 AM 42.8 °F 35.6 °F 76% 30.27 in 10.0 mi Calm Calm - N/A   Clear
1:35 AM 42.8 °F 35.6 °F 76% 30.27 in 10.0 mi Calm Calm - N/A   Clear
1:55 AM 42.8 °F 35.6 °F 76% 30.27 in 10.0 mi Calm Calm - N/A   Clear
2:15 AM 42.8 °F 37.4 °F 81% 30.26 in 10.0 mi Calm Calm - N/A   Clear
2:35 AM 41.0 °F 37.4 °F 87% 30.25 in 10.0 mi Calm Calm - N/A   Clear
2:55 AM 41.0 °F 37.4 °F 87% 30.24 in 10.0 mi Calm Calm - N/A   Clear
8:15 AM 48.2 °F 44.6 °F 87% 30.16 in 10.0 mi South 8.1 mph - N/A   Clear
8:35 AM 50.0 °F 44.6 °F 82% 30.16 in 10.0 mi SSW 8.1 mph - N/A   Clear
8:55 AM 51.8 °F 44.6 °F 76% 30.15 in 10.0 mi SSW 9.2 mph - N/A   Clear
9:15 AM 53.6 °F 44.6 °F 72% 30.13 in 10.0 mi SSW 12.7 mph 19.6 mph N/A   Clear
9:35 AM 57.2 °F 46.4 °F 67% 30.11 in 10.0 mi SSW 11.5 mph 17.3 mph N/A   Clear
9:55 AM 60.8 °F 44.6 °F 55% 30.10 in 10.0 mi SW 12.7 mph 23.0 mph N/A   Clear
10:15 AM 60.8 °F 42.8 °F 52% 30.09 in 10.0 mi SW 15.0 mph 26.5 mph N/A   Clear
10:35 AM 62.6 °F 42.8 °F 48% 30.08 in 10.0 mi SW 15.0 mph 25.3 mph N/A   Clear
10:55 AM 62.6 °F 44.6 °F 52% 30.06 in 10.0 mi SSW 20.7 mph 26.5 mph N/A   Clear
11:15 AM 64.4 °F 44.6 °F 49% 30.06 in 10.0 mi SSW 18.4 mph 28.8 mph N/A   Clear
11:35 AM 66.2 °F 46.4 °F 49% 30.04 in 10.0 mi SW 15.0 mph 21.9 mph N/A   Clear
11:55 AM 66.2 °F 46.4 °F 49% 30.02 in 10.0 mi SW 17.3 mph 27.6 mph N/A   Clear
12:15 PM 69.8 °F 48.2 °F 46% 30.00 in 10.0 mi SSW 18.4 mph 24.2 mph N/A   Clear
12:35 PM 69.8 °F 48.2 °F 46% 29.99 in 10.0 mi SW 18.4 mph 25.3 mph N/A   Clear
12:55 PM 69.8 °F 50.0 °F 49% 29.97 in 10.0 mi SW 13.8 mph 27.6 mph N/A   Clear
1:15 PM 71.6 °F 50.0 °F 46% 29.95 in 10.0 mi SW 17.3 mph 24.2 mph N/A   Clear
1:35 PM 71.6 °F 50.0 °F 46% 29.93 in 10.0 mi SW 17.3 mph 24.2 mph N/A   Clear
1:55 PM 73.4 °F 51.8 °F 47% 29.92 in 5.0 mi SW 19.6 mph 25.3 mph N/A   Haze